Weather History for Billings, MT

Change the Weather History Date:

Thursday, May 1, 2014

  Actual Average Record
Temperature  
Mean Temperature 54 °F 51 °F  
Max Temperature 73 °F 63 °F 88 °F (1981)
Min Temperature 35 °F 39 °F 17 °F (1954)
Degree Days  
Heating Degree Days 11 14  
Month to date heating degree days 11 14  
Since 1 July heating degree days 6793 6391  
Cooling Degree Days 0 0  
Month to date cooling degree days 0 0  
Year to date cooling degree days 0 1  
Growing Degree Days 4 (Base 50)    
Moisture  
Dew Point 30 °F    
Average Humidity 50    
Maximum Humidity 75    
Minimum Humidity 24    
Precipitation  
Precipitation 0.00 in 0.06 in 0.38 in (1954)
Month to date precipitation 0.00 0.06  
Year to date precipitation 5.58 3.74  
Snow  
Snow 0.00 in 0.10 in 3.10 in (1954)
Month to date snowfall 0.0 0.1  
Since 1 July snowfall 101.4 53.1  
Snow Depth 0.00 in    
Sea Level Pressure  
Sea Level Pressure 30.15 in    
Wind  
Wind Speed 7 mph (SSW)    
Max Wind Speed 15 mph    
Max Gust Speed 18 mph    
Visibility 10 miles    
Events      
T = Trace of Precipitation, MM = Missing Value Source: NWS Daily Summary

Daily Weather History Graph

Daily Weather History Graph

Search for Another Location

Airport:

Trip Planner

Search our weather history database for the weather conditions in past years. The results will help you decide how hot, cold, wet, or windy it might be!

Date:

Astronomy

May. 01, 2014 Rise Set
Actual Time 6:01 AM MDT 8:21 PM MDT
Civil Twilight 5:28 AM MDT 8:54 PM MDT
Nautical Twilight 4:47 AM MDT 9:36 PM MDT
Astronomical Twilight 4:01 AM MDT 10:22 PM MDT
Moon 7:48 AM MDT (5/1) 11:01 PM MDT (5/1)
Length of Visible Light 15h 26m
Length of Day
14h 20m
Waxing Crescent, 7% of the Moon is Illuminated
May 1
Waxing Crescent
May 6
First Quarter
May 14
Full
May 21
Last Quarter
May 28
New

Hourly Weather History & Observations

Time (MDT) Temp. Windchill Dew Point Humidity Pressure Visibility Wind Dir Wind Speed Gust Speed Precip Events Conditions
12:53 AM 45.0 °F - 23.0 °F 42% 30.33 in 10.0 mi Calm Calm - N/A   Clear
1:53 AM 43.0 °F 39.5 °F 25.0 °F 49% 30.32 in 10.0 mi SW 5.8 mph - N/A   Clear
2:53 AM 42.1 °F 36.6 °F 26.1 °F 53% 30.30 in 10.0 mi SW 9.2 mph - N/A   Clear
3:53 AM 39.9 °F 33.9 °F 26.1 °F 58% 30.29 in 10.0 mi SW 9.2 mph - N/A   Clear
4:53 AM 39.0 °F 32.8 °F 26.1 °F 60% 30.29 in 10.0 mi SSW 9.2 mph - N/A   Clear
5:53 AM 36.0 °F 29.6 °F 27.0 °F 70% 30.30 in 10.0 mi SSW 8.1 mph - N/A   Partly Cloudy
6:53 AM 36.0 °F 29.6 °F 28.0 °F 73% 30.30 in 10.0 mi SSW 8.1 mph - N/A   Partly Cloudy
7:53 AM 39.0 °F 32.3 °F 28.0 °F 65% 30.29 in 10.0 mi SW 10.4 mph - N/A   Partly Cloudy
8:53 AM 42.1 °F 35.2 °F 28.0 °F 58% 30.28 in 10.0 mi SSW 12.7 mph - N/A   Clear
9:53 AM 48.9 °F - 28.9 °F 46% 30.25 in 10.0 mi SW 11.5 mph - N/A   Clear
10:53 AM 54.0 °F - 27.0 °F 35% 30.23 in 10.0 mi SSW 9.2 mph - N/A   Clear
11:53 AM 59.0 °F - 28.4 °F 31% 30.21 in 10.0 mi SSW 5.8 mph - N/A   Partly Cloudy
1:53 PM 64.0 °F - 27.0 °F 25% 30.13 in 10.0 mi Variable 5.8 mph - N/A   Partly Cloudy
2:53 PM 66.0 °F - 30.0 °F 26% 30.10 in 10.0 mi Variable 3.5 mph - N/A   Partly Cloudy
3:53 PM 70.0 °F - 32.0 °F 25% 30.06 in 10.0 mi Calm Calm - N/A   Scattered Clouds
4:53 PM 72.0 °F - 35.1 °F 26% 30.03 in 10.0 mi North 3.5 mph - N/A   Scattered Clouds
5:53 PM 69.1 °F - 34.0 °F 27% 30.03 in 10.0 mi East 5.8 mph - N/A   Scattered Clouds
6:53 PM 69.1 °F - 37.0 °F 31% 30.01 in 10.0 mi East 3.5 mph - N/A   Scattered Clouds
7:53 PM 68.0 °F - 34.0 °F 28% 30.00 in 10.0 mi Calm Calm - N/A   Scattered Clouds
8:53 PM 64.9 °F - 33.1 °F 31% 29.99 in 10.0 mi Calm Calm - N/A   Scattered Clouds
9:53 PM 63.0 °F - 37.0 °F 38% 29.99 in 10.0 mi SW 8.1 mph - N/A   Mostly Cloudy
10:53 PM 60.1 °F - 37.0 °F 42% 29.98 in 10.0 mi Variable 4.6 mph - N/A   Scattered Clouds
11:53 PM 57.0 °F - 39.0 °F 51% 29.95 in 10.0 mi SSW 10.4 mph - N/A   Partly Cloudy